Time,TemperatureF,DewpointF,PressureIn,WindDirection,WindDirectionDegrees,WindSpeedMPH,WindSpeedGustMPH,Humidity,HourlyPrecipIn,Conditions,Clouds,dailyrainin,SoftwareType,DateUTC
2013-07-09 00:02:00,68.0,61.0,30.02,North,0,0.0,0.0,79,44.10,,,-99.99,,2013-07-09 07:02:00,
2013-07-09 00:11:00,67.0,61.0,30.02,North,0,0.0,0.0,82,44.10,,,-99.99,,2013-07-09 07:11:00,
2013-07-09 00:33:00,66.0,61.0,30.03,North,0,0.0,0.0,83,44.10,,,-99.99,,2013-07-09 07:33:00,
2013-07-09 00:42:00,65.0,60.0,30.03,North,0,0.0,0.0,84,44.10,,,-99.99,,2013-07-09 07:42:00,
2013-07-09 00:53:00,65.0,60.0,30.03,North,0,0.0,0.0,84,44.10,,,-99.99,,2013-07-09 07:53:00,
2013-07-09 01:01:00,65.0,60.0,30.03,North,0,0.0,0.0,84,44.10,,,-99.99,,2013-07-09 08:01:00,
2013-07-09 01:11:00,65.0,60.0,30.03,North,0,0.0,0.0,85,44.10,,,-99.99,,2013-07-09 08:11:00,
2013-07-09 01:22:00,64.0,60.0,30.03,North,0,0.0,0.0,86,44.10,,,-99.99,,2013-07-09 08:22:00,
2013-07-09 01:33:00,65.0,61.0,30.03,North,0,0.0,0.0,86,44.10,,,-99.99,,2013-07-09 08:33:00,
2013-07-09 01:43:00,65.0,61.0,30.03,North,0,0.0,0.0,86,44.10,,,-99.99,,2013-07-09 08:43:00,
2013-07-09 01:52:00,65.0,61.0,30.03,North,0,0.0,0.0,86,44.10,,,-99.99,,2013-07-09 08:52:00,
2013-07-09 02:02:00,64.0,60.0,30.03,North,0,0.0,0.0,87,44.10,,,-99.99,,2013-07-09 09:02:00,
2013-07-09 02:11:00,63.0,59.0,30.03,North,0,0.0,0.0,87,44.10,,,-99.99,,2013-07-09 09:11:00,
2013-07-09 02:22:00,63.0,59.0,30.03,North,0,0.0,0.0,88,44.10,,,-99.99,,2013-07-09 09:22:00,
2013-07-09 02:34:00,63.0,59.0,30.03,North,0,0.0,0.0,88,44.10,,,-99.99,,2013-07-09 09:34:00,
2013-07-09 02:42:00,62.0,59.0,30.03,North,0,0.0,0.0,89,44.10,,,-99.99,,2013-07-09 09:42:00,
2013-07-09 02:52:00,62.0,59.0,30.03,North,0,0.0,0.0,89,44.10,,,-99.99,,2013-07-09 09:52:00,
2013-07-09 03:01:00,62.0,59.0,30.03,North,0,0.0,0.0,90,44.10,,,-99.99,,2013-07-09 10:01:00,
2013-07-09 03:11:00,62.0,59.0,30.03,North,0,0.0,0.0,91,44.10,,,-99.99,,2013-07-09 10:11:00,
2013-07-09 03:22:00,62.0,59.0,30.03,North,0,0.0,0.0,91,44.10,,,-99.99,,2013-07-09 10:22:00,
2013-07-09 03:33:00,62.0,59.0,30.03,North,0,0.0,0.0,91,44.10,,,-99.99,,2013-07-09 10:33:00,
2013-07-09 03:42:00,62.0,59.0,30.03,North,0,0.0,0.0,91,44.10,,,-99.99,,2013-07-09 10:42:00,
2013-07-09 03:52:00,62.0,59.0,30.03,North,0,0.0,0.0,91,44.10,,,-99.99,,2013-07-09 10:52:00,
2013-07-09 04:01:00,61.0,59.0,30.03,North,0,0.0,0.0,92,44.10,,,-99.99,,2013-07-09 11:01:00,
2013-07-09 04:11:00,61.0,59.0,30.03,North,0,0.0,0.0,92,44.10,,,-99.99,,2013-07-09 11:11:00,
2013-07-09 04:22:00,61.0,59.0,30.03,North,0,0.0,0.0,93,44.10,,,-99.99,,2013-07-09 11:22:00,
2013-07-09 04:33:00,61.0,59.0,30.03,North,0,0.0,0.0,92,44.10,,,-99.99,,2013-07-09 11:33:00,
2013-07-09 04:42:00,60.0,58.0,30.03,North,0,0.0,0.0,94,44.10,,,-99.99,,2013-07-09 11:42:00,
2013-07-09 04:53:00,60.0,58.0,30.03,North,0,0.0,0.0,94,44.10,,,-99.99,,2013-07-09 11:53:00,
2013-07-09 05:01:00,60.0,58.0,30.03,North,0,0.0,0.0,94,44.10,,,-99.99,,2013-07-09 12:01:00,
2013-07-09 05:11:00,60.0,58.0,30.03,North,0,0.0,0.0,94,44.10,,,-99.99,,2013-07-09 12:11:00,
2013-07-09 05:22:00,60.0,59.0,30.03,North,0,0.0,0.0,95,44.10,,,-99.99,,2013-07-09 12:22:00,
2013-07-09 05:33:00,60.0,59.0,30.04,North,0,0.0,0.0,95,44.10,,,-99.99,,2013-07-09 12:33:00,
2013-07-09 05:43:00,60.0,59.0,30.04,North,0,0.0,0.0,95,44.10,,,-99.99,,2013-07-09 12:43:00,
2013-07-09 05:52:00,60.0,59.0,30.04,North,0,0.0,0.0,95,44.10,,,-99.99,,2013-07-09 12:52:00,
2013-07-09 06:21:00,60.0,59.0,30.04,North,0,0.0,0.0,95,44.10,,,-99.99,,2013-07-09 13:21:00,
2013-07-09 06:33:00,59.0,58.0,30.04,North,0,0.0,0.0,95,44.10,,,-99.99,,2013-07-09 13:33:00,
2013-07-09 06:53:00,59.0,58.0,30.05,North,0,0.0,0.0,95,44.10,,,-99.99,,2013-07-09 13:53:00,
2013-07-09 07:01:00,59.0,58.0,30.05,North,0,0.0,0.0,95,44.10,,,-99.99,,2013-07-09 14:01:00,
2013-07-09 07:11:00,59.0,58.0,30.05,North,0,0.0,0.0,95,44.10,,,-99.99,,2013-07-09 14:11:00,
2013-07-09 07:34:00,60.0,59.0,30.05,North,0,0.0,0.0,95,44.10,,,-99.99,,2013-07-09 14:34:00,
2013-07-09 07:43:00,60.0,59.0,30.05,North,0,0.0,0.0,95,44.10,,,-99.99,,2013-07-09 14:43:00,
2013-07-09 07:53:00,60.0,59.0,30.05,North,0,0.0,0.0,95,44.10,,,-99.99,,2013-07-09 14:53:00,
2013-07-09 08:01:00,61.0,59.0,30.05,North,0,0.0,0.0,94,44.10,,,-99.99,,2013-07-09 15:01:00,
2013-07-09 08:11:00,61.0,59.0,30.05,North,0,0.0,0.0,94,44.10,,,-99.99,,2013-07-09 15:11:00,
2013-07-09 08:33:00,63.0,60.0,30.05,North,0,0.0,0.0,90,44.10,,,-99.99,,2013-07-09 15:33:00,
2013-07-09 08:43:00,63.0,60.0,30.05,North,0,0.0,0.0,90,44.10,,,-99.99,,2013-07-09 15:43:00,
2013-07-09 08:52:00,63.0,60.0,30.05,North,0,0.0,0.0,90,44.10,,,-99.99,,2013-07-09 15:52:00,
2013-07-09 09:01:00,65.0,61.0,30.04,North,0,0.0,0.0,87,44.10,,,-99.99,,2013-07-09 16:01:00,
2013-07-09 09:11:00,66.0,61.0,30.04,North,0,0.0,0.0,85,44.10,,,-99.99,,2013-07-09 16:11:00,
2013-07-09 09:22:00,67.0,61.0,30.04,South,187,1.0,2.0,82,44.10,,,-99.99,,2013-07-09 16:22:00,
2013-07-09 09:33:00,67.0,61.0,30.04,South,187,1.0,2.0,82,44.10,,,-99.99,,2013-07-09 16:33:00,
2013-07-09 09:43:00,67.0,61.0,30.04,South,187,1.0,2.0,82,44.10,,,-99.99,,2013-07-09 16:43:00,
2013-07-09 09:52:00,67.0,61.0,30.04,South,187,1.0,2.0,82,44.10,,,-99.99,,2013-07-09 16:52:00,
2013-07-09 10:02:00,67.0,61.0,30.04,South,187,1.0,2.0,82,44.10,,,-99.99,,2013-07-09 17:02:00,
2013-07-09 10:45:00,74.0,61.0,30.01,SE,136,0.0,2.0,64,44.10,,,-99.99,,2013-07-09 17:45:00,
2013-07-09 10:53:00,74.0,61.0,30.01,SE,136,0.0,2.0,64,44.10,,,-99.99,,2013-07-09 17:53:00,
2013-07-09 11:01:00,74.0,61.0,30.01,SE,136,0.0,2.0,64,44.10,,,-99.99,,2013-07-09 18:01:00,
2013-07-09 11:11:00,74.0,61.0,30.01,SE,136,0.0,2.0,64,44.10,,,-99.99,,2013-07-09 18:11:00,
2013-07-09 11:22:00,74.0,61.0,30.01,SE,136,0.0,2.0,64,44.10,,,-99.99,,2013-07-09 18:22:00,
2013-07-09 11:32:00,79.0,61.0,30.00,SSW,201,1.0,4.0,55,44.10,,,-99.99,,2013-07-09 18:32:00,
2013-07-09 11:43:00,80.0,62.0,30.00,SW,221,2.0,6.0,55,44.10,,,-99.99,,2013-07-09 18:43:00,
2013-07-09 11:52:00,80.0,61.0,29.99,SSW,207,4.0,8.0,52,44.10,,,-99.99,,2013-07-09 18:52:00,
2013-07-09 12:01:00,80.0,61.0,29.99,SSW,207,4.0,8.0,52,44.10,,,-99.99,,2013-07-09 19:01:00,
2013-07-09 12:11:00,80.0,61.0,29.99,SSW,207,4.0,8.0,52,44.10,,,-99.99,,2013-07-09 19:11:00,
2013-07-09 12:22:00,81.0,63.0,29.99,SSW,204,4.0,9.0,54,44.10,,,-99.99,,2013-07-09 19:22:00,
2013-07-09 12:42:00,82.0,61.0,29.98,SSW,193,3.0,11.0,50,44.10,,,-99.99,,2013-07-09 19:42:00,
2013-07-09 12:52:00,82.0,62.0,29.98,SSW,208,5.0,13.0,51,44.10,,,-99.99,,2013-07-09 19:52:00,
2013-07-09 13:01:00,83.0,62.0,29.97,SSW,205,4.0,12.0,49,44.10,,,-99.99,,2013-07-09 20:01:00,
2013-07-09 13:11:00,83.0,62.0,29.97,West,270,4.0,10.0,50,44.10,,,-99.99,,2013-07-09 20:11:00,
2013-07-09 13:32:00,85.0,63.0,29.97,South,183,3.0,8.0,48,44.10,,,-99.99,,2013-07-09 20:32:00,
2013-07-09 13:42:00,85.0,63.0,29.97,South,183,3.0,8.0,48,44.10,,,-99.99,,2013-07-09 20:42:00,
2013-07-09 13:52:00,86.0,63.0,29.96,South,187,4.0,8.0,47,44.10,,,-99.99,,2013-07-09 20:52:00,
2013-07-09 14:01:00,86.0,62.0,29.96,SSW,198,5.0,12.0,45,44.10,,,-99.99,,2013-07-09 21:01:00,
2013-07-09 14:11:00,87.0,65.0,29.96,SE,145,2.0,13.0,48,44.10,,,-99.99,,2013-07-09 21:11:00,
2013-07-09 14:22:00,87.0,65.0,29.96,SE,145,2.0,13.0,48,44.10,,,-99.99,,2013-07-09 21:22:00,
2013-07-09 14:32:00,87.0,62.0,29.95,SSW,201,5.0,13.0,43,44.10,,,-99.99,,2013-07-09 21:32:00,
2013-07-09 14:42:00,88.0,61.0,29.94,SSW,204,4.0,13.0,41,44.10,,,-99.99,,2013-07-09 21:42:00,
2013-07-09 14:52:00,88.0,61.0,29.94,WSW,253,5.0,9.0,41,44.10,,,-99.99,,2013-07-09 21:52:00,
2013-07-09 15:01:00,88.0,61.0,29.94,SW,225,6.0,14.0,41,44.10,,,-99.99,,2013-07-09 22:01:00,
2013-07-09 15:11:00,88.0,61.0,29.94,SW,225,6.0,14.0,41,44.10,,,-99.99,,2013-07-09 22:11:00,
2013-07-09 15:33:00,89.0,61.0,29.94,South,186,6.0,13.0,40,44.10,,,-99.99,,2013-07-09 22:33:00,
2013-07-09 15:42:00,89.0,61.0,29.94,South,186,6.0,13.0,40,44.10,,,-99.99,,2013-07-09 22:42:00,
2013-07-09 15:53:00,89.0,61.0,29.94,South,186,6.0,13.0,40,44.10,,,-99.99,,2013-07-09 22:53:00,
2013-07-09 16:01:00,89.0,62.0,29.93,West,271,6.0,17.0,41,44.10,,,-99.99,,2013-07-09 23:01:00,
2013-07-09 16:11:00,89.0,62.0,29.93,SSW,195,5.0,13.0,41,44.10,,,-99.99,,2013-07-09 23:11:00,
2013-07-09 16:22:00,89.0,62.0,29.93,SSW,195,5.0,13.0,41,44.10,,,-99.99,,2013-07-09 23:22:00,
2013-07-09 16:33:00,89.0,62.0,29.93,SSW,195,5.0,13.0,41,44.10,,,-99.99,,2013-07-09 23:33:00,
2013-07-09 16:43:00,89.0,63.0,29.92,SSE,153,4.0,14.0,42,44.10,,,-99.99,,2013-07-09 23:43:00,
2013-07-09 16:52:00,89.0,63.0,29.92,SSE,153,4.0,14.0,42,44.10,,,-99.99,,2013-07-09 23:52:00,
2013-07-09 17:01:00,89.0,63.0,29.92,SSE,153,4.0,14.0,42,44.10,,,-99.99,,2013-07-10 00:01:00,
2013-07-09 17:11:00,89.0,63.0,29.92,SSE,153,4.0,14.0,42,44.10,,,-99.99,,2013-07-10 00:11:00,
2013-07-09 17:22:00,89.0,64.0,29.92,SSW,210,4.0,9.0,43,44.10,,,-99.99,,2013-07-10 00:22:00,
2013-07-09 17:33:00,89.0,64.0,29.91,SSW,197,4.0,10.0,43,44.10,,,-99.99,,2013-07-10 00:33:00,
2013-07-09 17:52:00,88.0,63.0,29.91,SW,231,5.0,12.0,43,44.10,,,-99.99,,2013-07-10 00:52:00,
2013-07-09 18:01:00,88.0,63.0,29.91,SSE,166,4.0,8.0,43,44.10,,,-99.99,,2013-07-10 01:01:00,
2013-07-09 18:11:00,88.0,63.0,29.91,SSE,166,4.0,8.0,43,44.10,,,-99.99,,2013-07-10 01:11:00,
2013-07-09 18:33:00,88.0,64.0,29.91,NW,319,2.0,7.0,45,44.10,,,-99.99,,2013-07-10 01:33:00,
2013-07-09 18:43:00,88.0,63.0,29.90,SSW,208,3.0,10.0,44,44.10,,,-99.99,,2013-07-10 01:43:00,
2013-07-09 18:53:00,88.0,63.0,29.90,SSW,208,3.0,10.0,44,44.10,,,-99.99,,2013-07-10 01:53:00,
2013-07-09 19:01:00,86.0,62.0,29.90,SW,219,3.0,8.0,45,44.10,,,-99.99,,2013-07-10 02:01:00,
2013-07-09 19:11:00,86.0,63.0,29.90,SSE,148,4.0,9.0,46,44.10,,,-99.99,,2013-07-10 02:11:00,
2013-07-09 19:33:00,86.0,62.0,29.91,South,179,2.0,8.0,45,44.10,,,-99.99,,2013-07-10 02:33:00,
2013-07-09 19:42:00,86.0,62.0,29.91,South,179,2.0,8.0,45,44.10,,,-99.99,,2013-07-10 02:42:00,
2013-07-09 19:53:00,85.0,64.0,29.91,SW,222,3.0,9.0,49,44.10,,,-99.99,,2013-07-10 02:53:00,
2013-07-09 20:01:00,84.0,62.0,29.91,SW,228,2.0,9.0,48,44.10,,,-99.99,,2013-07-10 03:01:00,
2013-07-09 20:11:00,83.0,62.0,29.91,WSW,242,0.0,4.0,49,44.10,,,-99.99,,2013-07-10 03:11:00,
2013-07-09 20:22:00,84.0,62.0,29.91,SW,224,1.0,7.0,48,44.10,,,-99.99,,2013-07-10 03:22:00,
2013-07-09 20:32:00,84.0,62.0,29.91,SW,224,1.0,7.0,48,44.10,,,-99.99,,2013-07-10 03:32:00,
2013-07-09 20:43:00,84.0,62.0,29.91,SW,224,1.0,7.0,48,44.10,,,-99.99,,2013-07-10 03:43:00,
2013-07-09 20:52:00,81.0,62.0,29.91,South,179,0.0,3.0,52,44.10,,,-99.99,,2013-07-10 03:52:00,
2013-07-09 21:01:00,80.0,61.0,29.92,SSE,153,1.0,3.0,53,44.10,,,-99.99,,2013-07-10 04:01:00,
2013-07-09 21:11:00,79.0,61.0,29.92,SE,129,1.0,3.0,55,44.10,,,-99.99,,2013-07-10 04:11:00,
2013-07-09 21:22:00,79.0,61.0,29.92,SE,129,1.0,3.0,55,44.10,,,-99.99,,2013-07-10 04:22:00,
2013-07-09 21:32:00,79.0,61.0,29.93,SE,135,0.0,3.0,55,44.10,,,-99.99,,2013-07-10 04:32:00,
2013-07-09 21:42:00,78.0,62.0,29.93,SSE,159,0.0,2.0,59,44.10,,,-99.99,,2013-07-10 04:42:00,
2013-07-09 21:52:00,78.0,62.0,29.93,SSE,163,2.0,7.0,57,44.10,,,-99.99,,2013-07-10 04:52:00,
2013-07-09 22:01:00,77.0,62.0,29.94,SSE,166,0.0,3.0,59,44.10,,,-99.99,,2013-07-10 05:01:00,
2013-07-09 22:11:00,77.0,63.0,29.94,North,0,0.0,0.0,61,44.10,,,-99.99,,2013-07-10 05:11:00,
2013-07-09 22:32:00,76.0,62.0,29.95,North,0,0.0,0.0,62,44.10,,,-99.99,,2013-07-10 05:32:00,
2013-07-09 22:42:00,76.0,62.0,29.95,SSE,167,1.0,6.0,61,44.10,,,-99.99,,2013-07-10 05:42:00,
2013-07-09 22:52:00,75.0,61.0,29.95,SSE,160,3.0,7.0,61,44.10,,,-99.99,,2013-07-10 05:52:00,
2013-07-09 23:01:00,76.0,62.0,29.96,SE,141,2.0,5.0,61,44.10,,,-99.99,,2013-07-10 06:01:00,
2013-07-09 23:11:00,75.0,62.0,29.96,ESE,120,2.0,4.0,63,44.10,,,-99.99,,2013-07-10 06:11:00,
2013-07-09 23:21:00,75.0,61.0,29.96,SE,146,3.0,8.0,62,44.10,,,-99.99,,2013-07-10 06:21:00,
2013-07-09 23:32:00,75.0,62.0,29.96,South,170,1.0,4.0,63,44.10,,,-99.99,,2013-07-10 06:32:00,
2013-07-09 23:42:00,73.0,61.0,29.97,SSE,159,1.0,5.0,65,44.10,,,-99.99,,2013-07-10 06:42:00,
2013-07-09 23:52:00,74.0,61.0,29.96,South,181,1.0,5.0,65,44.10,,,-99.99,,2013-07-10 06:52:00,